Back to catalog

FENGYUN 1C DEB

LostSSO
NORAD 37419·DEBRIS·🇨🇳 China

Launched May 10, 1999 from Taiyuan Satellite Launch Center

Loading…

Next Passes (next 24 hours)

TLE

StaleSource: Space-Track

Epoch: Jul 8, 2026, 08:15 UTC

1 37419U 99025EGM 26189.34379721  .00002381  00000-0  90817-3 0  9993
2 37419  98.5667 219.9813 0368011 320.2645  37.2083 14.00445751332542

Track FENGYUN 1C DEB in real time with AllMySat

Download on the App Store